Location: Bergfeld
(52.0500°N, 11.7833°E)
Time: 08:25:16
(UTC+00:00)

Cosmos 1603 - Pass Details

Date: 17 February 2020
Orbit: 833 x 858 km, 71.0° (Epoch: 27 March)

Event Time Altitude Azimuth Distance (km) Brightness Sun altitude
Rises 04:53:06 0° 203° (SSW) 3,413 6.6 -14.8°
Reaches altitude 10° 04:55:33 10° 202° (SSW) 2,479 5.9 -14.4°
Maximum altitude 05:01:14 77° 118° (ESE) 876 3.9 -13.5°
Drops below altitude 10° 05:06:55 10° 33° (NNE) 2,478 6.5 -12.6°
Sets 05:09:22 0° 32° (NNE) 3,413 7.3 -12.3°
